Zurück zum Katalog

RAX

USA 218

AktivWissenschaftVLEO
NORAD 37223·PAYLOAD·🇺🇸 United States

Gestartet Nov 20, 2010 von Kodiak Launch Complex

Loading…

Nächste Überflüge (nächste 24 Stunden)

TLE

AktuellSource: Space-Track

Epoche: Sep 14, 2026, 14:29 UTC

1 37223U 10062B   26257.60399637  .00002573  00000-0  20717-3 0  9998
2 37223  71.9699 194.8254 0014946 227.9587 132.0316 15.00825680127626

Verfolge RAX in Echtzeit mit AllMySat

Download on the App Store